Simultaneous Nadir Overpasses (SNOs) Predictions

Prediction of SNOs between NOAA-21 and NOAA-19 Satellite Orbit:

Table of predicted SNOs for the next 14.0 days since TLE Epoch: 5/8/2023
Index Date (NOAA-21) Time (NOAA-21) Lat,Lon (NOAA-21) SZA (NOAA-21 ) Date (NOAA-19) Time (NOAA-19) Lat,Lon (NOAA-19) SZA (NOAA-19 ) Distance(km) Time Diff (sec)
1 05/08/2023 12:09:04 -75.31, 163.17 121.41 05/08/2023 12:07:54 -75.30, 163.15 121.40 2.00 70
2 05/08/2023 12:59:50 75.31, -29.52 58.59 05/08/2023 12:58:47 75.32, -29.49 58.61 1.28 63
3 05/08/2023 13:50:34 -75.32, 137.79 121.42 05/08/2023 13:49:53 -75.30, 137.68 121.41 3.48 41
4 05/08/2023 14:41:20 75.32, -54.90 58.57 05/08/2023 14:40:46 75.33, -54.96 58.60 2.09 34
5 05/08/2023 15:32:05 -75.37, 112.26 121.38 05/08/2023 15:31:51 -75.36, 112.35 121.39 2.73 14
6
